Weather in Zimnitsa

Russia / Smolensk Oblast     55°10′29″N   33°41′18″E
temp.,
°C
wind,
m/s
gust,
m/s
humid.,
%
clouds,
%
prec.,
mm/h
press.,
hPa
HPBL,
m
25 january, mon
mon2500:00+3sse61597100 0.1 1007769
03:00+2sse61594100 0.8 1007659
06:00+1sse51293100 0.2 1006536
09:00+1sse51196100 0.3 1007455
12:00+2sse41297100 0.6 1008478
15:00+2se4997100 0.8 1008362
18:00+2se51197100 0.1 1007427
21:00+2se41196100 0.1 1007489
26 january, tue
tue2600:00+2se41295100 0.0 1007575
03:00+2se51395100 0.1 1005546
06:00+2ese61497100 0.6 1003529
09:00+1ese61492100 0.6 1002702
12:00+1se71397100 0.2 1000927
15:00+1se51297100 0.5 998789
18:000sse61286100 0.6 9991052
21:00−1sse6139197 0.8 9991076
27 january, wed
wed2700:00−1sse71493100 0.3 9991201
03:00−1s81592100 1.0 9981300
06:00−1ssw81791100 0.8 9981381
09:00−2ssw81691100 1.4 10001202
12:00−1sw71389100 0.3 10031055
15:00−1sw61186100 0.5 10051002
18:00−1ssw51090100 0.1 1007762
21:00−2ssw4993100 0.1 1008513
28 january, thu
thu2800:00−3ssw2696100 0.1 1009234
03:00−4s2297100 0.1 100864
06:00−3se1297100 0.0 100749
09:00−3se1397100 0.3 1007175
12:00−1nne1295100 1.2 1006191
15:00−1nne2396100 1.9 1004231
18:00−2n1298100 1.3 1003103
21:00−2wnw2498100 3.3 1002194
29 january, fri
fri2900:00−2w2598100 1.9 1002259
03:00−3w379797 2.5 1003344
06:00−7w259767 0.1 1004134
09:00−8w239656 0.1 100579
12:00−5sw24900 0.0 1006224
15:00−4ssw25890 0.0 1005380
18:00−6s369596 0.0 1005191
21:00−6sse399298 0.0 1004300